Location: Canet
(43.3261°N, 5.3723°E)
Time: 19:35:00
(UTC+00:00)

CZ-2C R/B - Pass Details

Date: 24 January 2021
Orbit: 704 x 908 km, 98.1° (Epoch: 07 March)

Event Time Altitude Azimuth Distance (km) Brightness Sun altitude
Rises 18:06:24 0° 170° (S) 3,292 6.3 -15.7°
Reaches altitude 10° 18:08:40 10° 172° (S) 2,396 5.6 -16.1°
Maximum altitude 18:14:00 75° 258° (WSW) 879 3.4 -17.1°
Drops below altitude 10° 18:19:40 10° 344° (NNW) 2,539 5.8 -18.1°
Sets 18:22:09 0° 346° (NNW) 3,503 6.5 -18.5°
